Voltar ao catálogo

STARLINK-32446

AtivoComunicaçõesVLEO
NORAD 61262·PAYLOAD·🇺🇸 United States

Lançado Sep 25, 2024 de Vandenberg Space Force Base

Loading…

Próximas Passagens (próximas 24 horas)

TLE

AtualizadoSource: CelesTrak SupGP

Época: Sep 14, 2026, 22:17 UTC

1 61262C 24175V   26257.92895833  .00019488  00000+0  57597-3 0  2577
2 61262  53.1600  31.4804 0001239  80.9017  48.7711 15.34370038    17

Acompanhe STARLINK-32446 em tempo real com AllMySat

Download on the App Store